Погода в Галушкинском

Россия / Волгоградская область     50°44′41″N   42°50′51″E
темп.,
°C
ветер,
м/с
пор.,
м/с
влажн.,
%
обл.,
%
осадки,
мм/ч
давл.,
гПа
погр.,
м
12 мая, ср
ср1200:00+7всв4979100 0.0 1024170
03:00+6св4981100 0.0 1023172
06:00+8св4982100 0.0 1022235
09:00+13всв5665100 0.0 1021664
12:00+16в33516 0.0 10201227
15:00+18вюв35451 0.0 10191864
18:00+17вюв35616 0.0 1019186
21:00+12в477799 0.0 101999
13 мая, чт
чт1300:00+11в349327 0.0 101964
03:00+10всв35935 0.0 101877
06:00+12св2591100 0.1 1017126
09:00+16в338448 0.2 1016317
12:00+21вюв23665 0.0 1016875
15:00+22ююз336117 1.4 10161237
18:00+22вюв116642 0.0 1016192
21:00+17всв3479100 0.2 101756
14 мая, пт
пт1400:00+16вюв348750 0.0 101749
03:00+15вюв3487100 0.0 101761
06:00+16в378381 0.0 1017153
09:00+22вюв57635 0.0 1017490
12:00+25юв57535 0.0 10161155
15:00+27ююв67485 0.0 10161439
18:00+24юв4861100 0.0 1015240
21:00+20вюв457285 0.0 101564
15 мая, сб
сб1500:00+19ююв5175343 0.0 1015365
03:00+17юв514515 0.0 1015301
06:00+15юв5155892 0.0 1015337
09:00+22ююв61347100 0.0 1015650
12:00+26ююв712381 0.0 10151127
15:00+28ююв7124036 0.0 10141856
18:00+24ю4857100 0.0 1013160
21:00+19ю22645 0.0 101411
16 мая, вс
вс1600:00+17юв2265100 0.0 101415
03:00+15ююв117071 0.0 101411
06:00+16ююв2369100 0.0 101573
09:00+22ююв4650100 0.0 1015414
12:00+26ююв574031 0.0 10151023
15:00+28ююв57365 0.0 10141800
18:00+25вюв355624 0.0 1014111
21:00+20всв445995 0.0 101443